This demonstration page uses our WeatherBlox Daily Observations layout. Learn more.

Left ArrowRight Arrow

Hourly Observations for August 20, 2018

Temp ( °F °C ) Dew Point ( °F °C ) Humidity (%) Winds ( mph kmh ) Pressure ( in mb ) Visibility ( mi km ) Precip ( " mm )
12:15 am 00:15 Clear 68 20 66 19 94 94 E 3 6 30.00 1016 10 16 0.00 0.00
12:35 am 00:35 Clear 68 19.8 66 18.8 94 94 E 3 6 30.00 1016 10 16 0.00 0.00
12:55 am 00:55 Clear 67 19.3 65 18.6 96 96 E 3 6 30.00 1016 10 16 0.00 0.00
1:15 am 01:15 Clear 67 19.3 65 18.5 95 95 E 5 7 30.00 1016 10 16 0.00 0.00
1:35 am 01:35 Clear 66 19.1 65 18.5 96 96 ESE 3 6 30.00 1016 10 16 0.00 0.00
1:55 am 01:55 Clear 66 19 65 18.3 96 96 ESE 3 6 29.97 1015 10 16 0.00 0.00
2:15 am 02:15 Clear 66 19 65 18.2 95 95 E 5 7 29.97 1015 10 16 0.00 0.00
2:35 am 02:35 Clear 66 19 65 18.2 95 95 ESE 3 6 29.97 1015 10 16 0.00 0.00
2:55 am 02:55 Clear 65 18.5 65 18.1 98 98 ESE 3 6 29.97 1015 10 16 0.00 0.00
3:15 am 03:15 Clear 66 18.7 65 18.1 96 96 ESE 3 6 29.97 1015 10 16 0.00 0.00
3:35 am 03:35 Clear 65 18.6 65 18.1 97 97 ESE 3 6 29.97 1015 10 16 0.00 0.00
3:55 am 03:55 Clear 66 19 65 18.3 96 96 ESE 5 7 29.97 1015 10 16 0.00 0.00
4:15 am 04:15 Clear 66 18.9 65 18.2 96 96 ESE 6 9 29.97 1015 10 16 0.00 0.00
4:35 am 04:35 Clear 65 18.6 64 18 96 96 ESE 3 6 29.97 1015 10 16 0.00 0.00
4:55 am 04:55 Clear 65 18.3 64 18 98 98 ESE 5 7 29.97 1015 10 16 0.00 0.00
5:15 am 05:15 Clear 64 18 64 17.8 99 99 ESE 3 6 29.97 1015 10 16 0.00 0.00
5:35 am 05:35 Clear 64 17.7 64 17.6 99 99 E 3 6 29.94 1014 10 16 0.00 0.00
5:55 am 05:55 Clear 64 18 64 17.7 98 98 E 5 7 29.94 1014 10 16 0.00 0.00
6:15 am 06:15 Clear 64 18 64 17.7 98 98 ESE 3 6 29.94 1014 10 16 0.00 0.00
6:35 am 06:35 Clear 64 17.7 64 17.6 99 99 E 5 7 29.94 1014 10 16 0.00 0.00
6:55 am 06:55 Partly Cloudy 64 17.7 64 17.7 100 100 E 5 7 29.94 1014 10 16 0.00 0.00
7:15 am 07:15 Partly Cloudy 64 18 64 18 100 100 ESE 3 6 29.97 1015 10 16 0.00 0.00
7:35 am 07:35 Sunny 65 18.3 65 18.2 99 99 ESE 5 7 29.97 1015 10 16 0.00 0.00
7:55 am 07:55 Sunny 66 19.1 66 18.7 98 98 ESE 6 9 29.97 1015 10 16 0.00 0.00
8:15 am 08:15 Sunny 67 19.5 66 19 97 97 ESE 5 7 29.97 1015 10 16 0.00 0.00
8:35 am 08:35 Partly Cloudy 68 19.8 67 19.4 98 98 SE 5 7 29.97 1015 10 16 0.00 0.00
8:55 am 08:55 Mostly Cloudy 69 20.5 68 19.8 96 96 ESE 6 9 29.97 1015 10 16 0.00 0.00
9:15 am 09:15 Sunny 71 21.4 68 20.1 92 92 ESE 5 7 29.91 1013 10 16 0.00 0.00
9:35 am 09:35 Sunny 71 21.9 69 20.5 92 92 ESE 7 11 29.91 1013 10 16 0.00 0.00
9:55 am 09:55 Partly Cloudy 73 22.5 69 20.7 90 90 ESE 6 9 29.91 1013 10 16 0.00 0.00
10:15 am 10:15 Partly Cloudy 73 22.7 70 20.9 90 90 SE 7 11 29.91 1013 10 16 0.00 0.00
10:35 am 10:35 Sunny 73 22.7 70 21 90 90 SE 7 11 29.91 1013 10 16 0.00 0.00
10:55 am 10:55 Sunny 74 23.2 71 21.4 90 90 ESE 7 11 29.91 1013 10 16 0.00 0.00
11:15 am 11:15 Sunny 76 24.5 72 22 86 86 SE 9 15 29.88 1012 10 16 0.00 0.00
11:35 am 11:35 Partly Cloudy 76 24.6 72 22.1 86 86 SE 9 15 29.88 1012 10 16 0.00 0.00
11:55 am 11:55 Partly Cloudy 76 24.6 72 22.2 87 87 SE 9 15 29.88 1012 10 16 0.00 0.00
12:15 pm 12:15 Mostly Cloudy 76 24.6 72 22.4 88 88 SE 8 13 29.88 1012 10 16 0.00 0.00
12:35 pm 12:35 Partly Cloudy 78 25.3 73 22.6 85 85 SE 10 17 29.88 1012 10 16 0.00 0.00
12:55 pm 12:55 Mostly Cloudy 79 25.9 73 22.6 82 82 SE 10 17 29.85 1011 10 16 0.00 0.00
1:15 pm 13:15 Mostly Cloudy 77 25 72 22.3 85 85 SE 10 17 29.85 1011 10 16 0.00 0.00
1:35 pm 13:35 Cloudy with Heavy Rain 74 23.4 73 22.9 97 97 S 7 11 29.85 1011 3 5 0.07 1.78
1:55 pm 13:55 Cloudy with Drizzle 76 24.5 75 24 97 97 S 7 11 29.85 1011 7 11 0.07 1.78
2:15 pm 14:15 Cloudy 78 25.4 75 24.1 93 93 SSW 10 17 29.85 1011 10 16 0.00 0.00
2:35 pm 14:35 Mostly Cloudy 80 26.4 75 24 87 87 SSW 13 20 29.85 1011 10 16 0.01 0.25
2:55 pm 14:55 Partly Cloudy with Nearby Thunderstorms 80 26.4 74 23.4 84 84 SSW 15 24 29.85 1011 10 16 0.01 0.25
3:15 pm 15:15 Mostly Cloudy with Nearby Thunderstorms 79 26.3 74 23.3 84 84 SSW 13 20 29.85 1011 10 16 0.00 0.00
3:35 pm 15:35 Mostly Cloudy 79 26.1 75 23.7 87 87 SSE 8 13 29.83 1010 10 16 0.00 0.00
3:55 pm 15:55 Mostly Cloudy with Nearby Thunderstorms 80 26.9 74 23.5 82 82 SSW 10 17 29.83 1010 10 16 0.00 0.00
4:15 pm 16:15 Mostly Cloudy 78 25.4 74 23.4 89 89 SE 7 11 29.83 1010 10 16 0.00 0.00
4:35 pm 16:35 Mostly Cloudy 77 25.1 74 23.4 90 90 SSE 7 11 29.83 1010 10 16 0.00 0.00
4:55 pm 16:55 Mostly Cloudy 78 25.8 74 23.4 87 87 SSE 8 13 29.80 1009 10 16 0.00 0.00
5:15 pm 17:15 Partly Cloudy 79 26.1 74 23.4 85 85 SSE 7 11 29.80 1009 10 16 0.00 0.00
5:35 pm 17:35 Mostly Cloudy with Light Rain 77 25.1 76 24.2 95 95 S 6 9 29.80 1009 5 8 0.03 0.76
5:55 pm 17:55 Partly Cloudy 79 26 73 22.5 81 81 SSW 9 15 29.80 1009 10 16 0.03 0.76
6:15 pm 18:15 Sunny 79 26.2 72 22.4 80 80 S 8 13 29.80 1009 10 16 0.00 0.00
6:35 pm 18:35 Sunny 78 25.3 72 22.3 84 84 S 9 15 29.80 1009 10 16 0.00 0.00
6:55 pm 18:55 Sunny 77 25.2 72 22.1 83 83 S 8 13 29.80 1009 10 16 0.00 0.00
7:15 pm 19:15 Sunny 77 24.9 73 22.5 87 87 S 9 15 29.80 1009 10 16 0.00 0.00
7:35 pm 19:35 Sunny 76 24.3 73 22.6 90 90 S 5 7 29.80 1009 10 16 0.00 0.00
7:55 pm 19:55 Partly Cloudy 75 24 73 22.6 92 92 Calm 29.80 1009 10 16 0.00 0.00
8:15 pm 20:15 Sunny 75 23.9 73 22.5 92 92 S 5 7 29.80 1009 10 16 0.00 0.00
8:35 pm 20:35 Partly Cloudy 73 22.6 72 22.2 98 98 Calm 29.83 1010 10 16 0.00 0.00
8:55 pm 20:55 Partly Cloudy 73 22.5 72 22 97 97 S 5 7 29.83 1010 10 16 0.00 0.00
9:15 pm 21:15 Clear 73 22.5 71 21.6 95 95 S 5 7 29.83 1010 10 16 0.00 0.00
9:35 pm 21:35 Partly Cloudy 72 22.1 71 21.5 96 96 S 3 6 29.83 1010 7 11 0.00 0.00
9:55 pm 21:55 Clear 71 21.7 71 21.5 99 99 SSE 3 6 29.83 1010 7 11 0.00 0.00
10:15 pm 22:15 Clear 70 21.1 70 21.1 100 100 Calm 29.83 1010 10 16 0.00 0.00
10:35 pm 22:35 Partly Cloudy 70 21.1 70 21.1 100 100 S 5 7 29.83 1010 10 16 0.00 0.00
10:55 pm 22:55 Partly Cloudy 72 22.1 71 21.7 98 98 S 6 9 29.83 1010 10 16 0.00 0.00
11:15 pm 23:15 Partly Cloudy 71 21.8 71 21.6 99 99 S 3 6 29.83 1010 10 16 0.00 0.00
11:35 pm 23:35 Mostly Cloudy 72 22 71 21.6 98 98 SSE 5 7 29.80 1009 7 11 0.00 0.00
11:55 pm 23:55 Mostly Cloudy 72 22.1 69 20.8 92 92 S 6 9 29.80 1009 10 16 0.00 0.00

Powered by AerisWeather